www.pogodaiklimat.ru

Погода и климат >> Архив погоды >> Украина >> Рахов


ПОГОДА в Рахове

  • Прогноз погоды в Рахове
  • Монитор погоды в Рахове

АРХИВ ПОГОДЫ в Рахове

Время (UTC), дата Ветер
(напр.,м/с)
 
Видим.   Явления Облачность Т
(С)
Тd
(С)
f
(%)
Тe
(С)
Тes
(С)
Комфортность P
(гПа)
Po
(гПа)
Тmin
(С)
Tmax
(С)
R
(мм)
R24
(мм)
S
(см)
03 11.09 штиль 0 20 км 2 балла +10.7 +10.2 97
06 11.09 штиль 0 20 км 3/3 600 м
[St Ci]
+11.5 +10.7 95 +11 +13 1025.5 957.0 +9.7
09 11.09 штиль 0 50 км 6/1 1000 м
[Cu med, cong Ci]
+20.8 +14.0 65 +23 +33 комфорт 1023.3 957.0
12 11.09 ЮВ 1 50 км 6/3 600 м
[Cb cap Ci]
+27.0 +13.0 42 +29 +36 жарко 1021.1 956.3
15 11.09 штиль 0 20 км 8/4 600 м
[Cb cap Ci]
+23.3 +15.9 63 +28 +29 душно 1021.1 955.5
18 11.09 штиль 0 20 км 8/3 600 м
[Sc Ac trans]
+17.4 +15.6 89 +17 +17 1023.7 956.6 +27.6
21 11.09 штиль 0 20 км 8/0
[Ci]
+13.6 +12.3 92 +13 +13 1026.5 958.4
00 12.09 штиль 0 20 км 9/0
[Ac und Ci]
+11.8 +11.0 95 +11 +11 1027.2 958.6
03 12.09 штиль 0 20 км 9/3 600 м
[Sc Ac und]
+11.0 +10.2 95 +10 +10 1028.2 959.4
06 12.09 штиль 0 20 км 9/0
[Ci]
+11.9 +10.5 91 +11 +14 1028.7 960.1 +9.7
09 12.09 ЮЗ 1 50 км 9/3 1000 м
[Cu med, cong Ac und Ci]
+20.0 +12.2 61 +23 +27 комфорт 1026.5 959.8
12 12.09 ЮВ 1 50 км 8/3 1000 м
[Cu med, cong Ac trans Ci fib]
+26.2 +12.6 43 +28 +33 жарко 1024.5 959.3
15 12.09 З 1 50 км 9/3 1000 м
[Cu med, cong Ac und Ci]
+25.0 +12.2 45 +27 +27 жарко 1024.1 958.7
18 12.09 штиль 0 20 км 3/0
[Ac trans]
+16.4 +13.5 83 +16 +16 1027.4 959.9 +27.3
21 12.09 штиль 0 20 км ясно +14.2 +12.9 92 +14 +14 1028.7 960.6
00 13.09 штиль 0 20 км ясно +13.4 +12.5 94 +13 +13 1029.4 961.1
03 13.09 штиль 0 20 км ясно +11.4 +10.9 97 +11 +11 1030.2 961.3
06 13.09 ЮЗ 1 50 км ясно +12.1 +10.3 89 +12 +14 1029.9 961.2 +9.3
09 13.09 штиль 0 50 км 3/3 1000 м
[Cu med, cong]
+21.6 +12.7 57 +24 +33 комфорт 1027.3 960.9
12 13.09 ЮЗ 1 20 км 6/6 600 м
[Cb cap]
+23.8 +12.1 48 +26 +30 жарко 1025.5 959.7
15 13.09 З 1 20 км 8/3 600 м
[Cu med, cong Ci]
+23.7 +10.4 43 +25 +26 комфорт 1024.6 958.9
18 13.09 штиль 0 20 км ясно +15.2 +13.0 87 +15 +15 1026.7 958.9 +26.6
21 13.09 штиль 0 20 км ясно +11.7 +11.1 96 +11 +11 1028.4 959.7
00 14.09 штиль 0 20 км 6/6 600 м
[Cb cap]
+10.7 +10.2 97 +10 +10 1029.2 960.2
03 14.09 штиль 0 20 км 9/9 600 м
[Cb cap]
+11.1 +9.7 91 +10 +10 1028.5 959.7
06 14.09 З 1 50 км 4/3 600 м
[Cb cap Ac trans]
+12.5 +10.2 86 +12 +14 1028.3 959.8 +9.5
09 14.09 В 1 20 км в посл. час ливневой дождь 10/10 600 м
[Cb cap]
+17.1 +12.6 75 +18 +18 1027.5 960.1
12 14.09 В 3 20 км {ливн. осадки} 6/6 600 м
[Cb cap]
+18.4 +10.0 58 +19 +22 1026.6 959.6
15 14.09 В 2 20 км 4/4 1000 м
[Cu med, cong]
+17.1 +8.0 55 +17 +18 1026.6 959.3
18 14.09 С 1 20 км ясно +13.6 +8.4 71 +14 +14 1028.6 960.4 +19.9 0.0
21 14.09 штиль 0 20 км ясно +11.1 +7.0 76 +11 +11 1029.7 960.8
00 15.09 С 1 20 км 3/0
[Ac und]
+8.9 +6.2 83 +8 +8 1030.3 960.8
03 15.09 штиль 0 20 км ясно +6.0 +5.3 95 +5 +5 1030.6 960.4
06 15.09 СВ 1 50 км 3/0
[Ci]
+7.1 +4.6 84 +6 +8 1030.5 960.6 +4.5
09 15.09 ЮЗ 1 50 км ясно +16.8 +7.7 55
12 15.09 ЮЗ 2 50 км 3/0
[Ci]
+21.4 +7.2 40 +22 +30 комфорт 1023.9 957.7
15 15.09 Ю 1 50 км 5/0
[Ci]
+19.4 +6.2 42 +21 +23 комфорт 1022.8 956.2
18 15.09 штиль 0 20 км ясно +10.7 +7.6 81 +10 +10 1024.3 955.7 +22.0
21 15.09 штиль 0 20 км ясно +7.5 +6.4 93 +7 +7 1025.0 955.6
00 16.09 штиль 0 20 км ясно +6.1 +5.1 93 +5 +5 1024.6 954.9
03 16.09 штиль 0 20 км ясно +4.8 +4.4 97 +4 +4 1023.9 953.9
06 16.09 штиль 0 20 км 8/0
[Ac und]
+8.1 +5.0 81 +7 +8 1023.1 953.9 +4.0
09 16.09 Ю 1 20 км 8/3 1000 м
[Cu med, cong Ac und]
+17.0 +9.2 60 +18 +22 1019.7 952.8
12 16.09 ЮЗ 2 50 км 6/3 1000 м
[Cu med, cong Ac trans]
+22.2 +11.0 49 +24 +29 комфорт 1016.5 951.0
15 16.09 Ю 1 50 км 7 баллов +21.6 +12.7 57
18 16.09 штиль 0 20 км 9/5 600 м
[Sc Ac und]
+14.9 +12.9 88 +15 +15 1015.5 948.4 +23.3
21 16.09 штиль 0 20 км 9 баллов +13.5 +12.6 94
00 17.09 штиль 0 20 км 10/10 600 м
[Sc]
+12.9 +12.3 96 +12 +12 1013.6 946.2
03 17.09 штиль 0 4000 м слаб. ливневой дождь 10/10 600 м
[Cb cap]
+12.5 +12.0 97 +12 +12 1013.5 946.0
06 17.09 штиль 0 20 км {ливн. осадки} 10/10 600 м
[Cb cap]
+13.9 +12.9 94 +13 +13 1013.2 946.0 +12.5 0.5
09 17.09 Ю 1 20 км в посл. час ливневой дождь 10/10 600 м
[Cb cap]
+15.6 +13.2 86 +16 +16 1012.9 946.1
15 17.09 штиль 0 20 км 7 баллов +16.0 +13.5 85
18 17.09 штиль 0 20 км 7 баллов +14.5 +13.2 92 +17.1 1
21 17.09 Ю 3 20 км 7 баллов +17.0 +8.7 58

 

Местоположение метеостанции Рахов (Закарпатская область, Украина): широта 48.05 долгота 24.30 высота над уровнем моря 576 м.

В архиве по умолчанию представлена погода в Рахове за последнюю неделю. Архивные данные за месяц целиком и за предыдущие месяцы, начиная с января 2011 года, Вы можете получить, выбрав интересующий диапазон дат из раскрывающегося списка и нажав кнопку "Ввод!".


*Определитесь, кто Вы:
робот инопланетянин человек

Внимание! Время в таблицах - всемирное. Для получения местного времени необходимо прибавить поправку, которая равна 2 ч.

Смотрите также архив погоды в соседних городах и на ближайших метеорологических станциях:

Погода на Пожежевской (Ивано-Франковская область, Украина) (19 км)
Погода в Ясине (Закарпатская область, Украина) (25 км)
Погода в Сигету-Мармацией (Румыния) (31 км)
Погода в Окна Сугатаг (Румыния) (44 км)
Погода в Иезере (Румыния) (56 км)
Погода в Хусте (Закарпатская область, Украина) (65 км)
Погода в Селятине (Черновицкая область, Украина) (71 км)
Погода в Бая-Маре (Румыния) (76 км)
Погода в Коломые (Ивано-Франковская область, Украина) (76 км)
Погода в Тыргу-Лэпуш (Румыния) (76 км)

Пояснения к столбцам:

Ветер - указаны скорость ветра в м/с - средняя за 10 мин, порывы в срок и между сроками (в фигурных скобках) и направление, откуда дует ветер: С - северный, СВ - северо-восточный, В - восточный, ЮВ - юго-восточный, Ю - южный, ЮЗ - юго-западный, З - западный, СЗ - северо-западный.
Видимость - горизонтальная дальность видимости в метрах или километрах. При видимости от 1 до 10 км при отсутствии осадков обычно наблюдается дымка, при ухудшении видимости до 1 км и менее - туман. В сухую погоду видимость может ухудшаться дымом, пылью или мглою.
Явления - указаны атмосферные явления, наблюдавшиеся в срок или в последний час перед сроком; фигурными скобками обозначены явления, наблюдавшиеся между сроками (за 1-3 часа до срока); квадратными скобками обозначены град или гололедные отложения с указанием их диаметра в мм.
Облачность - указаны через наклонную черту общая и нижняя облачность в баллах и высота нижней границы облаков в метрах; квадратными скобками обозначены формы облаков: Ci - перистые, Cs - перисто-слоистые, Cc - перисто-кучевые, Ac - высококучевые, As - высокослоистые, Sc - слоисто-кучевые, Ns - слоисто-дождевые, Cu - кучевые, Cb - кучево-дождевые. Подробнее классификацию облаков см. в Атласе облаков (PDF).
T - Температура воздуха - температура, измеренная на высоте 2 м над землей.
Td - Температура точки росы - температура, при понижении до которой содержащийся в воздухе водяной пар достигнет насыщения.
f - Относительная влажность воздуха - влажноcть воздуха, измеренная на высоте 2 м над землей.
Te - Эффективная температура - температура, которую ощущает одетый по сезону человек в тени. Характеристика душности погоды. При расчете учитывается влияние влажности воздуха и скорости ветра на теплоощущения человека.
Tes - Эффективная температура на солнце - температура, которую ощущает человек, с поправкой на солнечный нагрев. Характеристика знойности погоды. Зависит от высоты солнца над горизонтом, облачности и скорости ветра. Ночью, в пасмурную погоду, а также при ветре 12 м/с и более поправка равна нулю.
P - Атмосферное давление - приведенное к уровню моря атмосферное давление.
Po - Атмосферное давление - измеренное на уровне метеостанции атмосферное давление.
Tmin - Минимальная температура - минимум температуры воздуха на высоте 2 м над землей.
Tmax - Максимальная температура - максимум температуры воздуха на высоте 2 м над землей.
R - Количество осадков - Количество выпавших осадков за период времени, мм. При наведении курсора мыши на число - период времени, за который выпало указанное количество осадков.
R24 - Количество осадков - Количество выпавших осадков за 24 часа, мм.
S - Снежный покров - Высота снежного покрова, см. При наведении курсора мыши на число - состояние снежного покрова и степень покрытия местности в баллах.